TimeMST,TemperatureF,Dew PointF,Humidity,Sea Level PressureIn,VisibilityMPH,Wind Direction,Wind SpeedMPH,Gust SpeedMPH,PrecipitationIn,Events,Conditions,WindDirDegrees,DateUTC
12:53 AM,12.0,6.1,77,30.19,10.0,East,5.8,-,N/A,,Clear,80,2014-01-08 07:53:00
1:53 AM,12.0,7.0,80,30.18,10.0,ENE,6.9,-,N/A,,Clear,70,2014-01-08 08:53:00
2:53 AM,12.9,8.1,81,30.19,10.0,ENE,8.1,-,N/A,,Clear,70,2014-01-08 09:53:00
3:53 AM,15.1,9.0,77,30.16,10.0,ENE,6.9,-,N/A,,Clear,60,2014-01-08 10:53:00
4:53 AM,10.9,7.0,84,30.18,10.0,NE,4.6,-,N/A,,Clear,40,2014-01-08 11:53:00
5:53 AM,15.1,10.0,80,30.18,10.0,ENE,5.8,-,N/A,,Clear,70,2014-01-08 12:53:00
6:53 AM,16.0,10.0,77,30.20,10.0,East,4.6,-,N/A,,Clear,90,2014-01-08 13:53:00
7:53 AM,15.1,10.0,80,30.25,10.0,SSE,4.6,-,N/A,,Clear,160,2014-01-08 14:53:00
8:53 AM,19.0,12.9,77,30.25,10.0,SE,3.5,-,N/A,,Clear,130,2014-01-08 15:53:00
9:53 AM,28.0,16.0,61,30.23,10.0,Calm,Calm,-,N/A,,Clear,0,2014-01-08 16:53:00
10:53 AM,33.1,10.0,38,30.19,10.0,SW,4.6,-,N/A,,Clear,230,2014-01-08 17:53:00
11:53 AM,35.1,10.0,35,30.17,10.0,WSW,4.6,-,N/A,,Clear,240,2014-01-08 18:53:00
12:53 PM,37.9,10.0,32,30.13,10.0,SW,3.5,-,N/A,,Clear,230,2014-01-08 19:53:00
1:53 PM,41.0,10.0,28,30.09,10.0,Calm,Calm,-,N/A,,Clear,0,2014-01-08 20:53:00
2:53 PM,42.1,9.0,26,30.09,10.0,Variable,3.5,-,N/A,,Overcast,0,2014-01-08 21:53:00
3:53 PM,42.1,10.0,27,30.08,10.0,West,4.6,-,N/A,,Clear,260,2014-01-08 22:53:00
4:53 PM,37.9,10.0,32,30.12,10.0,West,3.5,-,N/A,,Overcast,270,2014-01-08 23:53:00
5:53 PM,36.0,9.0,33,30.12,10.0,Calm,Calm,-,N/A,,Overcast,0,2014-01-09 00:53:00
6:53 PM,32.0,9.0,38,30.14,10.0,Calm,Calm,-,N/A,,Overcast,0,2014-01-09 01:53:00
7:53 PM,28.9,10.9,47,30.17,10.0,ENE,6.9,-,N/A,,Overcast,70,2014-01-09 02:53:00
8:53 PM,23.0,10.9,60,30.19,10.0,Calm,Calm,-,N/A,,Partly Cloudy,0,2014-01-09 03:53:00
9:53 PM,19.9,10.0,65,30.18,10.0,NE,4.6,-,N/A,,Mostly Cloudy,40,2014-01-09 04:53:00
10:53 PM,21.0,10.9,65,30.15,10.0,NE,6.9,-,N/A,,Scattered Clouds,50,2014-01-09 05:53:00
11:53 PM,19.9,10.9,68,30.15,10.0,East,5.8,-,N/A,,Scattered Clouds,90,2014-01-09 06:53:00